Hourly Weather Chugunka

Today, 4 July, Saturday

Time Temperature Precipitation Wind Pressure Humidity
00:00 +20°C° 0 mm 1 mps 747 mmHg 97%
01:00 +19°C° 0 mm 1 mps 746 mmHg 98%
02:00 +19°C° 0 mm 1 mps 746 mmHg 98%
03:00 +18°C° 0 mm 1 mps 746 mmHg 98%
04:00 +19°C° 0 mm 1 mps 746 mmHg 97%
05:00 +20°C° 0 mm 1 mps 746 mmHg 96%
06:00 +20°C° 0 mm 1 mps 746 mmHg 96%
07:00 +21°C° 0 mm 1 mps 746 mmHg 93%
08:00 +20°C° 0 mm 2 mps 746 mmHg 91%
09:00 +21°C° 0 mm 2 mps 746 mmHg 88%
10:00 +21°C° 0.1 mm 2 mps 746 mmHg 85%
11:00 +23°C° 0.1 mm 2 mps 746 mmHg 82%
12:00 +24°C° 0 mm 2 mps 747 mmHg 79%
13:00 +24°C° 0.2 mm 2 mps 747 mmHg 78%
14:00 +24°C° 0.2 mm 2 mps 746 mmHg 76%
15:00 +25°C° 0.2 mm 2 mps 746 mmHg 74%
16:00 +25°C° 0.1 mm 2 mps 746 mmHg 75%
17:00 +24°C° 0.1 mm 3 mps 747 mmHg 76%
18:00 +24°C° 0.1 mm 3 mps 747 mmHg 76%
19:00 +23°C° 0 mm 2 mps 747 mmHg 81%
20:00 +21°C° 0 mm 2 mps 747 mmHg 85%
21:00 +19°C° 0 mm 2 mps 747 mmHg 90%
22:00 +19°C° 0 mm 2 mps 747 mmHg 92%
23:00 +18°C° 0 mm 2 mps 747 mmHg 94%

Tomorrow, 5 July, Sunday

Time Temperature Precipitation Wind Pressure Humidity
00:00 +17°C° 0 mm 2 mps 747 mmHg 96%
01:00 +18°C° 0 mm 1 mps 747 mmHg 96%
02:00 +16°C° 0 mm 1 mps 747 mmHg 96%
03:00 +16°C° 0 mm 1 mps 747 mmHg 96%
04:00 +18°C° 0 mm 1 mps 747 mmHg 94%
05:00 +18°C° 0 mm 1 mps 748 mmHg 91%
06:00 +19°C° 0 mm 1 mps 748 mmHg 89%
07:00 +20°C° 0 mm 1 mps 748 mmHg 84%
08:00 +21°C° 0 mm 1 mps 748 mmHg 80%
09:00 +22°C° 0 mm 1 mps 748 mmHg 76%
10:00 +22°C° 0 mm 1 mps 748 mmHg 75%
11:00 +23°C° 0 mm 1 mps 748 mmHg 75%
12:00 +23°C° 0 mm 1 mps 748 mmHg 74%
13:00 +24°C° 0 mm 2 mps 748 mmHg 70%
14:00 +25°C° 0 mm 2 mps 747 mmHg 65%
15:00 +26°C° 0 mm 2 mps 747 mmHg 61%
16:00 +26°C° 0 mm 2 mps 747 mmHg 61%
17:00 +26°C° 0 mm 2 mps 747 mmHg 62%
18:00 +26°C° 0 mm 2 mps 747 mmHg 63%
19:00 +24°C° 0.1 mm 2 mps 747 mmHg 71%
20:00 +23°C° 0.1 mm 2 mps 747 mmHg 79%
21:00 +20°C° 0.1 mm 2 mps 747 mmHg 87%
22:00 +20°C° 0.4 mm 1 mps 747 mmHg 89%
23:00 +20°C° 0.4 mm 1 mps 747 mmHg 92%

Day after tomorrow, 6 July, Monday

Time Temperature Precipitation Wind Pressure Humidity
00:00 +19°C° 0.4 mm 1 mps 747 mmHg 94%
01:00 +19°C° 0.9 mm 1 mps 747 mmHg 94%
02:00 +19°C° 0.9 mm 1 mps 746 mmHg 95%
03:00 +17°C° 0.9 mm 0 mps 746 mmHg 95%
04:00 +19°C° 0.9 mm 1 mps 746 mmHg 95%
05:00 +19°C° 0.9 mm 1 mps 746 mmHg 95%
06:00 +18°C° 0.9 mm 2 mps 747 mmHg 95%
07:00 +18°C° 0.2 mm 2 mps 747 mmHg 94%
08:00 +18°C° 0.2 mm 2 mps 747 mmHg 92%
09:00 +19°C° 0.2 mm 2 mps 747 mmHg 91%
10:00 +20°C° 0.2 mm 2 mps 746 mmHg 86%
11:00 +21°C° 0.2 mm 2 mps 746 mmHg 80%
12:00 +23°C° 0.2 mm 2 mps 746 mmHg 75%
13:00 +23°C° 0.3 mm 2 mps 746 mmHg 72%
14:00 +24°C° 0.3 mm 3 mps 746 mmHg 69%
15:00 +25°C° 0.3 mm 3 mps 746 mmHg 65%
16:00 +25°C° 0.1 mm 3 mps 746 mmHg 66%
17:00 +24°C° 0.1 mm 3 mps 746 mmHg 66%
18:00 +24°C° 0.1 mm 3 mps 746 mmHg 67%
19:00 +22°C° 0 mm 3 mps 746 mmHg 73%
20:00 +20°C° 0 mm 2 mps 746 mmHg 79%
21:00 +19°C° 0 mm 2 mps 746 mmHg 85%
22:00 +18°C° 0 mm 2 mps 746 mmHg 86%
23:00 +18°C° 0 mm 2 mps 746 mmHg 87%

7 July, Tuesday

Time Temperature Precipitation Wind Pressure Humidity
00:00 +17°C° 0 mm 2 mps 746 mmHg 88%
01:00 +17°C° 0 mm 2 mps 746 mmHg 89%
02:00 +16°C° 0 mm 2 mps 747 mmHg 89%
03:00 +16°C° 0 mm 2 mps 747 mmHg 90%
04:00 +16°C° 0 mm 2 mps 747 mmHg 86%
05:00 +17°C° 0 mm 2 mps 747 mmHg 83%
06:00 +18°C° 0 mm 2 mps 747 mmHg 79%
07:00 +19°C° 0 mm 2 mps 748 mmHg 73%
08:00 +21°C° 0 mm 2 mps 748 mmHg 66%
09:00 +24°C° 0 mm 2 mps 748 mmHg 59%
10:00 +25°C° 0 mm 3 mps 748 mmHg 54%
11:00 +26°C° 0 mm 3 mps 748 mmHg 49%
12:00 +27°C° 0 mm 3 mps 748 mmHg 44%
13:00 +27°C° 0 mm 3 mps 748 mmHg 45%
14:00 +26°C° 0 mm 4 mps 748 mmHg 46%
15:00 +26°C° 0 mm 4 mps 748 mmHg 47%
16:00 +26°C° 0 mm 3 mps 749 mmHg 48%
17:00 +26°C° 0 mm 3 mps 749 mmHg 50%
18:00 +26°C° 0 mm 3 mps 749 mmHg 51%
19:00 +24°C° 0 mm 3 mps 749 mmHg 57%
20:00 +21°C° 0 mm 3 mps 750 mmHg 63%
21:00 +20°C° 0 mm 2 mps 750 mmHg 68%
22:00 +19°C° 0 mm 2 mps 750 mmHg 69%
23:00 +18°C° 0 mm 2 mps 750 mmHg 70%

8 July, Wednesday

Time Temperature Precipitation Wind Pressure Humidity
00:00 +17°C° 0 mm 2 mps 751 mmHg 71%
01:00 +17°C° 0 mm 2 mps 751 mmHg 73%
02:00 +16°C° 0 mm 2 mps 751 mmHg 75%
03:00 +16°C° 0 mm 2 mps 751 mmHg 77%
04:00 +16°C° 0 mm 2 mps 751 mmHg 76%
05:00 +17°C° 0 mm 2 mps 752 mmHg 75%
06:00 +18°C° 0 mm 2 mps 752 mmHg 74%
07:00 +20°C° 0 mm 2 mps 752 mmHg 69%
08:00 +21°C° 0 mm 2 mps 752 mmHg 64%
09:00 +24°C° 0 mm 2 mps 753 mmHg 59%
10:00 +25°C° 0 mm 3 mps 752 mmHg 54%
11:00 +27°C° 0 mm 3 mps 752 mmHg 49%
12:00 +28°C° 0 mm 3 mps 752 mmHg 43%
13:00 +28°C° 0 mm 4 mps 752 mmHg 45%
14:00 +28°C° 0 mm 4 mps 751 mmHg 47%
15:00 +29°C° 0 mm 4 mps 751 mmHg 49%
16:00 +28°C° 0.1 mm 4 mps 751 mmHg 55%
17:00 +28°C° 0.1 mm 3 mps 751 mmHg 60%
18:00 +27°C° 0.1 mm 3 mps 751 mmHg 66%
19:00 +26°C° 0 mm 2 mps 751 mmHg 71%
20:00 +24°C° 0 mm 2 mps 751 mmHg 77%
21:00 +23°C° 0 mm 2 mps 751 mmHg 83%
22:00 +21°C° 0 mm 2 mps 751 mmHg 83%
23:00 +20°C° 0 mm 2 mps 750 mmHg 84%

9 July, Thursday

Time Temperature Precipitation Wind Pressure Humidity
00:00 +20°C° 0 mm 1 mps 750 mmHg 85%
01:00 +19°C° 0 mm 2 mps 750 mmHg 87%
02:00 +19°C° 0 mm 2 mps 749 mmHg 88%
03:00 +19°C° 0 mm 2 mps 749 mmHg 90%
04:00 +19°C° 0 mm 2 mps 749 mmHg 90%
05:00 +20°C° 0 mm 2 mps 748 mmHg 89%
06:00 +20°C° 0 mm 3 mps 747 mmHg 89%
07:00 +21°C° 0 mm 3 mps 747 mmHg 84%
08:00 +24°C° 0 mm 3 mps 747 mmHg 79%
09:00 +25°C° 0 mm 3 mps 747 mmHg 74%
10:00 +25°C° 0.2 mm 3 mps 747 mmHg 74%
11:00 +25°C° 0.2 mm 4 mps 747 mmHg 73%
12:00 +26°C° 0.2 mm 4 mps 747 mmHg 73%
13:00 +26°C° 0.1 mm 4 mps 747 mmHg 68%
14:00 +27°C° 0.1 mm 4 mps 747 mmHg 64%
15:00 +27°C° 0.1 mm 4 mps 746 mmHg 60%
16:00 +27°C° 0 mm 4 mps 746 mmHg 59%
17:00 +26°C° 0 mm 4 mps 746 mmHg 57%
18:00 +26°C° 0 mm 4 mps 746 mmHg 56%
19:00 +24°C° 0 mm 3 mps 747 mmHg 62%
20:00 +21°C° 0 mm 3 mps 747 mmHg 67%
21:00 +19°C° 0 mm 2 mps 747 mmHg 73%
22:00 +18°C° 0 mm 2 mps 747 mmHg 75%
23:00 +17°C° 0 mm 2 mps 747 mmHg 78%
Show more